Location: Bratsk-Energetik
(56.3300°N, 101.7600°E)
Time: 22:17:42
(UTC+08:00)

ISS - Pass Details

Date: 20 May 2017
Orbit: 402 x 409 km, 51.6° (Epoch: 25 May)

Event Time Altitude Azimuth Distance (km) Brightness Sun altitude
Exits shadow 03:37:37 - 258° (WSW) 1,954 -0.8 -7.6°
Reaches altitude 10° 03:38:51 10° 252° (WSW) 1,467 -1.5 -7.5°
Maximum altitude 03:41:54 35° 184° (S) 672 -3.1 -7.3°
Drops below altitude 10° 03:44:55 10° 117° (ESE) 1,462 -0.9 -7.0°
Sets 03:47:05 0° 108° (ESE) 2,320 0.3 -6.8°
